When you browse on this site, cookies collect data to enhance your experience and personalize the content and advertising you see.
Visit our Privacy Policy to learn more. By continuing to use the site, you agree to this use of cookies and data.
  • In Czech Republic
  • List of Countries
  • For 7 days
  • Water Temperature
  • Satellite Maps
  • Weather Map
  • Weather Widgets
  • user-avatar
    Login

    Hourly Weather Udong

    Today, 19 April, Friday

    Time Temperature Precipitation Wind Pressure Humidity
    00:00 +31°C° 0 mm 3 mps 755 mmHg 71%
    01:00 +31°C° 0 mm 2 mps 755 mmHg 72%
    02:00 +31°C° 0 mm 3 mps 754 mmHg 74%
    03:00 +30°C° 0 mm 3 mps 754 mmHg 75%
    04:00 +30°C° 0 mm 3 mps 754 mmHg 77%
    05:00 +30°C° 0 mm 3 mps 754 mmHg 77%
    06:00 +31°C° 0 mm 3 mps 755 mmHg 76%
    07:00 +31°C° 0 mm 3 mps 755 mmHg 74%
    08:00 +34°C° 0 mm 3 mps 755 mmHg 67%
    09:00 +35°C° 0 mm 3 mps 755 mmHg 61%
    10:00 +37°C° 0 mm 3 mps 755 mmHg 54%
    11:00 +38°C° 0 mm 3 mps 754 mmHg 50%
    12:00 +39°C° 0 mm 3 mps 754 mmHg 46%
    13:00 +40°C° 0 mm 3 mps 753 mmHg 42%
    14:00 +39°C° 0 mm 3 mps 753 mmHg 44%
    15:00 +39°C° 0 mm 3 mps 752 mmHg 45%
    16:00 +39°C° 0 mm 3 mps 752 mmHg 46%
    17:00 +38°C° 0 mm 3 mps 752 mmHg 49%
    18:00 +37°C° 0 mm 3 mps 752 mmHg 52%
    19:00 +36°C° 0 mm 3 mps 752 mmHg 55%
    20:00 +35°C° 0 mm 3 mps 753 mmHg 59%
    21:00 +34°C° 0 mm 4 mps 753 mmHg 62%
    22:00 +34°C° 0 mm 4 mps 753 mmHg 66%
    23:00 +33°C° 0 mm 3 mps 753 mmHg 68%

    Tomorrow, 20 April, Saturday

    Time Temperature Precipitation Wind Pressure Humidity
    00:00 +33°C° 0 mm 3 mps 753 mmHg 70%
    01:00 +31°C° 0 mm 3 mps 753 mmHg 72%
    02:00 +31°C° 0 mm 2 mps 753 mmHg 73%
    03:00 +31°C° 0 mm 2 mps 752 mmHg 74%
    04:00 +30°C° 0 mm 2 mps 752 mmHg 76%
    05:00 +31°C° 0 mm 2 mps 753 mmHg 75%
    06:00 +31°C° 0 mm 2 mps 753 mmHg 74%
    07:00 +31°C° 0 mm 2 mps 753 mmHg 74%
    08:00 +34°C° 0 mm 3 mps 754 mmHg 66%
    09:00 +36°C° 0 mm 3 mps 754 mmHg 58%
    10:00 +37°C° 0 mm 3 mps 754 mmHg 51%
    11:00 +38°C° 0 mm 3 mps 753 mmHg 47%
    12:00 +39°C° 0 mm 3 mps 753 mmHg 44%
    13:00 +40°C° 0 mm 3 mps 752 mmHg 40%
    14:00 +40°C° 0 mm 3 mps 752 mmHg 41%
    15:00 +41°C° 0 mm 4 mps 751 mmHg 42%
    16:00 +41°C° 0 mm 4 mps 750 mmHg 42%
    17:00 +40°C° 0 mm 4 mps 751 mmHg 46%
    18:00 +38°C° 0 mm 4 mps 751 mmHg 49%
    19:00 +37°C° 0 mm 4 mps 751 mmHg 53%
    20:00 +36°C° 0 mm 4 mps 752 mmHg 57%
    21:00 +35°C° 0 mm 4 mps 752 mmHg 61%
    22:00 +34°C° 0 mm 4 mps 753 mmHg 64%
    23:00 +34°C° 0 mm 4 mps 753 mmHg 67%

    Day after tomorrow, 21 April, Sunday

    Time Temperature Precipitation Wind Pressure Humidity
    00:00 +33°C° 0 mm 4 mps 753 mmHg 69%
    01:00 +33°C° 0 mm 4 mps 753 mmHg 72%
    02:00 +32°C° 0 mm 4 mps 752 mmHg 73%
    03:00 +31°C° 0 mm 3 mps 752 mmHg 74%
    04:00 +31°C° 0 mm 3 mps 752 mmHg 76%
    05:00 +31°C° 0 mm 3 mps 752 mmHg 76%
    06:00 +32°C° 0 mm 4 mps 753 mmHg 75%
    07:00 +32°C° 0 mm 4 mps 754 mmHg 75%
    08:00 +34°C° 0 mm 4 mps 754 mmHg 68%
    09:00 +35°C° 0 mm 4 mps 754 mmHg 61%
    10:00 +37°C° 0 mm 4 mps 754 mmHg 54%
    11:00 +38°C° 0 mm 4 mps 754 mmHg 49%
    12:00 +40°C° 0 mm 4 mps 753 mmHg 44%
    13:00 +41°C° 0 mm 4 mps 752 mmHg 40%
    14:00 +42°C° 0 mm 4 mps 751 mmHg 38%
    15:00 +42°C° 0 mm 4 mps 751 mmHg 37%
    16:00 +42°C° 0 mm 4 mps 750 mmHg 35%
    17:00 +41°C° 0 mm 4 mps 750 mmHg 38%
    18:00 +40°C° 0 mm 4 mps 751 mmHg 42%
    19:00 +38°C° 0 mm 4 mps 751 mmHg 45%
    20:00 +36°C° 0 mm 4 mps 752 mmHg 50%
    21:00 +35°C° 0 mm 4 mps 753 mmHg 56%
    22:00 +34°C° 0 mm 4 mps 753 mmHg 62%
    23:00 +34°C° 0 mm 4 mps 753 mmHg 64%

    22 April, Monday

    Time Temperature Precipitation Wind Pressure Humidity
    00:00 +33°C° 0 mm 4 mps 753 mmHg 66%
    01:00 +33°C° 0 mm 5 mps 752 mmHg 68%
    02:00 +32°C° 0 mm 4 mps 752 mmHg 71%
    03:00 +32°C° 0 mm 4 mps 752 mmHg 73%
    04:00 +31°C° 0 mm 3 mps 752 mmHg 75%
    05:00 +32°C° 0 mm 4 mps 753 mmHg 73%
    06:00 +32°C° 0 mm 4 mps 754 mmHg 72%
    07:00 +32°C° 0 mm 4 mps 754 mmHg 71%
    08:00 +33°C° 0 mm 4 mps 754 mmHg 65%
    09:00 +35°C° 0 mm 4 mps 755 mmHg 59%
    10:00 +36°C° 0 mm 4 mps 755 mmHg 53%
    11:00 +37°C° 0 mm 4 mps 754 mmHg 48%
    12:00 +39°C° 0 mm 3 mps 753 mmHg 44%
    13:00 +40°C° 0 mm 3 mps 753 mmHg 39%
    14:00 +40°C° 0 mm 3 mps 752 mmHg 37%
    15:00 +40°C° 0 mm 3 mps 751 mmHg 34%
    16:00 +42°C° 0 mm 3 mps 751 mmHg 32%
    17:00 +40°C° 0 mm 3 mps 751 mmHg 35%
    18:00 +39°C° 0 mm 2 mps 752 mmHg 37%
    19:00 +38°C° 0 mm 2 mps 752 mmHg 39%
    20:00 +37°C° 0 mm 2 mps 753 mmHg 43%
    21:00 +36°C° 0 mm 2 mps 753 mmHg 46%
    22:00 +35°C° 0 mm 3 mps 754 mmHg 50%
    23:00 +34°C° 0 mm 3 mps 754 mmHg 56%

    23 April, Tuesday

    Time Temperature Precipitation Wind Pressure Humidity
    00:00 +33°C° 0 mm 4 mps 753 mmHg 61%
    01:00 +33°C° 0 mm 4 mps 753 mmHg 66%
    02:00 +32°C° 0 mm 4 mps 753 mmHg 67%
    03:00 +32°C° 0 mm 4 mps 753 mmHg 69%
    04:00 +31°C° 0 mm 3 mps 753 mmHg 70%
    05:00 +32°C° 0 mm 4 mps 754 mmHg 69%
    06:00 +32°C° 0 mm 4 mps 754 mmHg 69%
    07:00 +32°C° 0 mm 4 mps 755 mmHg 69%
    08:00 +34°C° 0 mm 4 mps 755 mmHg 62%
    09:00 +35°C° 0 mm 3 mps 755 mmHg 54%
    10:00 +37°C° 0 mm 3 mps 756 mmHg 47%
    11:00 +38°C° 0 mm 3 mps 755 mmHg 43%
    12:00 +39°C° 0 mm 3 mps 754 mmHg 39%
    13:00 +40°C° 0 mm 2 mps 753 mmHg 35%
    14:00 +41°C° 0 mm 2 mps 752 mmHg 33%
    15:00 +41°C° 0 mm 2 mps 752 mmHg 31%
    16:00 +42°C° 0 mm 2 mps 751 mmHg 29%
    17:00 +41°C° 0 mm 2 mps 752 mmHg 32%
    18:00 +40°C° 0 mm 2 mps 752 mmHg 34%
    19:00 +39°C° 0 mm 2 mps 753 mmHg 36%
    20:00 +38°C° 0 mm 3 mps 753 mmHg 41%
    21:00 +36°C° 0 mm 3 mps 754 mmHg 47%
    22:00 +35°C° 0 mm 4 mps 754 mmHg 52%
    23:00 +35°C° 0 mm 4 mps 754 mmHg 57%

    24 April, Wednesday

    Time Temperature Precipitation Wind Pressure Humidity
    00:00 +34°C° 0 mm 4 mps 754 mmHg 61%
    01:00 +33°C° 0 mm 4 mps 754 mmHg 65%
    02:00 +33°C° 0 mm 4 mps 754 mmHg 66%
    03:00 +32°C° 0 mm 4 mps 754 mmHg 67%
    04:00 +32°C° 0 mm 4 mps 754 mmHg 68%
    05:00 +32°C° 0 mm 4 mps 754 mmHg 68%
    06:00 +31°C° 0 mm 3 mps 755 mmHg 68%
    07:00 +33°C° 0 mm 3 mps 755 mmHg 68%
    08:00 +34°C° 0 mm 3 mps 755 mmHg 62%
    09:00 +36°C° 0 mm 3 mps 756 mmHg 56%
    10:00 +37°C° 0 mm 3 mps 756 mmHg 50%
    11:00 +38°C° 0 mm 3 mps 755 mmHg 47%
    12:00 +39°C° 0 mm 3 mps 754 mmHg 43%
    13:00 +40°C° 0 mm 2 mps 753 mmHg 40%
    14:00 +40°C° 0 mm 2 mps 753 mmHg 38%
    15:00 +41°C° 0 mm 2 mps 752 mmHg 37%
    16:00 +41°C° 0 mm 2 mps 752 mmHg 35%
    17:00 +40°C° 0 mm 2 mps 752 mmHg 37%
    18:00 +39°C° 0 mm 2 mps 752 mmHg 40%
    19:00 +38°C° 0 mm 3 mps 753 mmHg 42%
    20:00 +37°C° 0 mm 3 mps 753 mmHg 46%
    21:00 +36°C° 0 mm 3 mps 754 mmHg 50%
    22:00 +35°C° 0 mm 3 mps 754 mmHg 55%
    23:00 +35°C° 0 mm 3 mps 754 mmHg 59%
    Show more